Spokane, WA
on Saturday, February 23, 2013

Saturday
Previous Day Next Day
Daily Summary
 ActualAverageRecord
Temperature
Mean Temperature °F 34°F  
Max Temperature 42°F 42°F 59°F (1947)
Min Temperature 27°F 27°F 2°F (1942)
Degree Days
Heating Degree Days 30 31  
Month to date heating degree days 720 746  
Since 1 July heating degree days 4388 4679  
Cooling Degree Days 0 0  
Month to date cooling degree days 0 0  
Year to date cooling degree days 0 0  
Moisture
Dew Point 23°F   
Average Humidity 62    
Maximum Humidity 78    
Minimum Humidity 45    
Precipitation
Precipitation 0.00 in 0.05 in 0.48 in (2009)
Month to date precipitation 0.46 1.08  
Year to date precipitation 2.09 2.87  
Snow
Snow 0.00 in 0.20 in 6.80 in (2011)
Month to date snowfall 2.9 5.8  
Since 1 July snowfall 41.1 39.3  
Snow Depth T in   
Wind
Wind Speed 12 mph   
Max Wind Speed 26 mph   
Max Gust Speed 32 mph   
Visibility 10 miles   
Events     

Key: T is trace of precipitation, MM is missing value
Source: NWS Daily Summary
Time(PST)TemperatureDew PointHumidity Pressure Visibility Wind DirectionWind SpeedGust SpeedPrecipitationEvents Conditions
12:53 AM 32.0°F 24.1°F 73% 29.72 in 10.0 miles SW 23.0 mph - N/A   Mostly Cloudy
1:53 AM 30.9°F 23.0°F 72% 29.75 in 10.0 miles WSW 18.4 mph - N/A   Mostly Cloudy
2:53 AM 30.0°F 21.9°F 72% 29.76 in 10.0 miles WSW 18.4 mph - N/A   Mostly Cloudy
3:53 AM 28.9°F 21.0°F 72% 29.78 in 10.0 miles SW 19.6 mph 28.8 mph N/A   Partly Cloudy
4:53 AM 28.9°F 21.9°F 75% 29.80 in 10.0 miles SW 23.0 mph - N/A   Overcast
5:53 AM 28.9°F 23.0°F 78% 29.85 in 10.0 miles SW 13.8 mph - N/A   Overcast
6:53 AM 28.0°F 21.9°F 78% 29.88 in 10.0 miles SSW 12.7 mph - N/A   Mostly Cloudy
7:53 AM 28.0°F 23.0°F 81% 29.91 in 10.0 miles SSW 15.0 mph 21.9 mph N/A   Mostly Cloudy
8:53 AM 30.9°F 24.1°F 76% 29.94 in 10.0 miles SW 18.4 mph - N/A   Mostly Cloudy
9:53 AM 32.0°F 25.0°F 75% 29.97 in 10.0 miles SW 16.1 mph - N/A   Mostly Cloudy
10:53 AM 33.1°F 25.0°F 72% 30.00 in 10.0 miles SW 11.5 mph - N/A   Mostly Cloudy
11:53 AM 36.0°F 25.0°F 64% 30.01 in 10.0 miles WSW 10.4 mph - N/A   Mostly Cloudy
12:53 PM 37.9°F 26.1°F 62% 30.01 in 10.0 miles WSW 15.0 mph - N/A   Scattered Clouds
1:53 PM 41.0°F 23.0°F 49% 30.02 in 10.0 miles West 12.7 mph - N/A   Scattered Clouds
2:53 PM 42.1°F 23.0°F 47% 30.04 in 10.0 miles West 11.5 mph - N/A   Scattered Clouds
3:53 PM 41.0°F 21.9°F 47% 30.06 in 10.0 miles West 12.7 mph - N/A   Scattered Clouds
4:53 PM 39.9°F 23.0°F 51% 30.09 in 10.0 miles West 11.5 mph - N/A   Mostly Cloudy
5:53 PM 34.0°F 25.0°F 70% 30.13 in 10.0 miles Calm Calm - N/A   Scattered Clouds
6:53 PM 35.1°F 24.1°F 64% 30.15 in 10.0 miles Calm Calm - N/A   Scattered Clouds
7:53 PM 33.8°F 23.0°F 65% 30.11 in 10.0 miles South 3.5 mph - N/A   Partly Cloudy
8:53 PM 32.0°F 23.0°F 69% 30.19 in 10.0 miles SSW 3.5 mph - N/A   Partly Cloudy
9:53 PM 28.9°F 23.0°F 78% 30.21 in 10.0 miles Calm Calm - N/A   Clear
10:53 PM 28.0°F 23.0°F 81% 30.22 in 10.0 miles South 5.8 mph - N/A   Partly Cloudy
11:53 PM 28.0°F 21.9°F 78% 30.23 in 10.0 miles South 6.9 mph - N/A   Partly Cloudy
Moon Phase
Feb. 23 Feb. 25 Mar. 04 Mar. 11 Mar. 19
Sunrise:06:41 AM (PST) Moon Rise:03:37 PM (PST)2/23
Sunset:05:26 PM (PST) Moon Set:05:11 AM (PST)2/23

Copyright © 2014 The Weather Underground, Inc.